Torna al catalogo

STARLINK-4723

AttivoComunicazioniVLEO
NORAD 53797·PAYLOAD·🇺🇸 United States

Lanciato Sep 11, 2022 da Cape Canaveral Space Force Station

Loading…

Prossimi Passaggi (prossime 24 ore)

TLE

AggiornatoSource: CelesTrak SupGP

Epoca: Sep 14, 2026, 20:51 UTC

1 53797C 22111AA  26257.86923611 -.00037282  00000+0 -11989-2 0  2576
2 53797  53.1585 132.3434 0001354  87.6267 340.8838 15.31721104    19

Traccia STARLINK-4723 in tempo reale con AllMySat

Download on the App Store